Time,TemperatureF,DewpointF,PressureIn,WindDirection,WindDirectionDegrees,WindSpeedMPH,WindSpeedGustMPH,Humidity,HourlyPrecipIn,Conditions,Clouds,dailyrainin,SoftwareType,DateUTC
2013-02-21 00:00:00,19.0,17.6,30.11,ENE,67,6.0,27.0,94,0.00,,,-99.99,Weather View 32 v60,2013-02-21 05:00:00,
2013-02-21 00:05:00,19.0,17.6,30.11,NE,45,8.0,27.0,94,0.00,,,-99.99,Weather View 32 v60,2013-02-21 05:05:00,
2013-02-21 00:10:00,19.0,17.6,30.11,East,90,6.0,27.0,94,0.00,,,-99.99,Weather View 32 v60,2013-02-21 05:10:00,
2013-02-21 00:15:00,19.0,17.6,30.11,NE,45,16.0,27.0,94,0.00,,,-99.99,Weather View 32 v60,2013-02-21 05:15:00,
2013-02-21 00:20:00,19.0,17.6,30.11,NE,45,9.0,27.0,94,0.00,,,-99.99,Weather View 32 v60,2013-02-21 05:20:00,
2013-02-21 00:25:00,19.0,17.6,30.11,NE,45,9.0,27.0,94,0.00,,,-99.99,Weather View 32 v60,2013-02-21 05:25:00,
2013-02-21 00:30:00,19.0,17.6,30.12,NE,45,6.0,27.0,94,0.00,,,-99.99,Weather View 32 v60,2013-02-21 05:30:00,
2013-02-21 00:35:00,19.0,17.6,30.12,NNE,22,12.0,19.0,94,0.00,,,-99.99,Weather View 32 v60,2013-02-21 05:35:00,
2013-02-21 00:40:00,19.0,17.8,30.13,North,360,11.0,19.0,95,0.00,,,-99.99,Weather View 32 v60,2013-02-21 05:40:00,
2013-02-21 00:45:00,19.0,17.8,30.13,NE,45,8.0,19.0,95,0.00,,,-99.99,Weather View 32 v60,2013-02-21 05:45:00,
2013-02-21 00:50:00,19.0,17.6,30.13,NE,45,12.0,19.0,94,0.00,,,-99.99,Weather View 32 v60,2013-02-21 05:50:00,
2013-02-21 00:55:00,19.0,17.8,30.13,NE,45,9.0,19.0,95,0.00,,,-99.99,Weather View 32 v60,2013-02-21 05:55:00,
2013-02-21 01:00:00,19.0,17.6,30.12,NE,45,10.0,17.0,94,0.00,,,-99.99,Weather View 32 v60,2013-02-21 06:00:00,
2013-02-21 01:05:00,19.0,17.6,30.12,ENE,67,6.0,17.0,94,0.00,,,-99.99,Weather View 32 v60,2013-02-21 06:05:00,
2013-02-21 01:10:00,19.0,17.6,30.13,NNE,22,11.0,17.0,94,0.00,,,-99.99,Weather View 32 v60,2013-02-21 06:10:00,
2013-02-21 01:15:00,19.0,17.6,30.13,NE,45,10.0,17.0,94,0.00,,,-99.99,Weather View 32 v60,2013-02-21 06:15:00,
2013-02-21 01:20:00,19.0,17.8,30.12,NNE,22,11.0,17.0,95,0.00,,,-99.99,Weather View 32 v60,2013-02-21 06:20:00,
2013-02-21 01:25:00,19.0,17.8,30.12,NE,45,9.0,19.0,95,0.00,,,-99.99,Weather View 32 v60,2013-02-21 06:25:00,
2013-02-21 01:30:00,19.0,17.8,30.13,NE,45,9.0,19.0,95,0.00,,,-99.99,Weather View 32 v60,2013-02-21 06:30:00,
2013-02-21 01:35:00,19.0,18.0,30.13,NE,45,4.0,19.0,96,0.00,,,-99.99,Weather View 32 v60,2013-02-21 06:35:00,
2013-02-21 01:40:00,19.0,17.8,30.13,North,360,8.0,19.0,95,0.00,,,-99.99,Weather View 32 v60,2013-02-21 06:40:00,
2013-02-21 01:45:00,19.0,17.8,30.13,East,90,11.0,19.0,95,0.00,,,-99.99,Weather View 32 v60,2013-02-21 06:45:00,
2013-02-21 01:50:00,19.0,17.8,30.13,North,360,9.0,19.0,95,0.00,,,-99.99,Weather View 32 v60,2013-02-21 06:50:00,
2013-02-21 01:55:00,19.0,18.0,30.13,North,360,3.0,19.0,96,0.00,,,-99.99,Weather View 32 v60,2013-02-21 06:55:00,
2013-02-21 02:00:00,19.0,17.8,30.13,North,360,10.0,19.0,95,0.00,,,-99.99,Weather View 32 v60,2013-02-21 07:00:00,
2013-02-21 02:05:00,19.0,18.0,30.13,NNE,22,6.0,19.0,96,0.00,,,-99.99,Weather View 32 v60,2013-02-21 07:05:00,
2013-02-21 02:10:00,19.0,18.0,30.13,NE,45,10.0,19.0,96,0.00,,,-99.99,Weather View 32 v60,2013-02-21 07:10:00,
2013-02-21 02:15:00,19.0,17.8,30.13,ENE,67,6.0,19.0,95,0.00,,,-99.99,Weather View 32 v60,2013-02-21 07:15:00,
2013-02-21 02:20:00,19.0,17.8,30.13,NE,45,9.0,19.0,95,0.00,,,-99.99,Weather View 32 v60,2013-02-21 07:20:00,
2013-02-21 02:25:00,19.0,17.8,30.13,NNE,22,10.0,15.0,95,0.00,,,-99.99,Weather View 32 v60,2013-02-21 07:25:00,
2013-02-21 02:30:00,19.0,18.0,30.13,NE,45,7.0,15.0,96,0.00,,,-99.99,Weather View 32 v60,2013-02-21 07:30:00,
2013-02-21 02:35:00,19.0,17.8,30.13,NE,45,13.0,15.0,95,0.00,,,-99.99,Weather View 32 v60,2013-02-21 07:35:00,
2013-02-21 02:40:00,19.0,18.0,30.13,ENE,67,3.0,15.0,96,0.00,,,-99.99,Weather View 32 v60,2013-02-21 07:40:00,
2013-02-21 02:45:00,19.0,17.8,30.13,North,360,8.0,15.0,95,0.00,,,-99.99,Weather View 32 v60,2013-02-21 07:45:00,
2013-02-21 02:50:00,19.0,18.0,30.13,North,360,8.0,15.0,96,0.00,,,-99.99,Weather View 32 v60,2013-02-21 07:50:00,
2013-02-21 02:55:00,19.0,18.0,30.13,East,90,7.0,15.0,96,0.00,,,-99.99,Weather View 32 v60,2013-02-21 07:55:00,
2013-02-21 03:00:00,19.0,18.0,30.12,NE,45,10.0,18.0,96,0.00,,,-99.99,Weather View 32 v60,2013-02-21 08:00:00,
2013-02-21 03:05:00,19.0,18.0,30.12,NE,45,6.0,18.0,96,0.00,,,-99.99,Weather View 32 v60,2013-02-21 08:05:00,
2013-02-21 03:10:00,19.0,18.0,30.12,NE,45,13.0,18.0,96,0.00,,,-99.99,Weather View 32 v60,2013-02-21 08:10:00,
2013-02-21 03:15:00,19.0,18.0,30.12,NNE,22,6.0,18.0,96,0.00,,,-99.99,Weather View 32 v60,2013-02-21 08:15:00,
2013-02-21 03:20:00,19.0,18.0,30.12,NE,45,4.0,18.0,96,0.00,,,-99.99,Weather View 32 v60,2013-02-21 08:20:00,
2013-02-21 03:25:00,19.0,18.0,30.12,NE,45,9.0,18.0,96,0.00,,,-99.99,Weather View 32 v60,2013-02-21 08:25:00,
2013-02-21 03:30:00,19.0,18.0,30.12,NE,45,10.0,18.0,96,0.00,,,-99.99,Weather View 32 v60,2013-02-21 08:30:00,
2013-02-21 03:35:00,19.0,18.0,30.12,NE,45,7.0,18.0,96,0.00,,,-99.99,Weather View 32 v60,2013-02-21 08:35:00,
2013-02-21 03:40:00,19.0,18.0,30.12,NE,45,11.0,22.0,96,0.00,,,-99.99,Weather View 32 v60,2013-02-21 08:40:00,
2013-02-21 03:45:00,19.0,18.0,30.12,NNE,22,10.0,22.0,96,0.00,,,-99.99,Weather View 32 v60,2013-02-21 08:45:00,
2013-02-21 03:50:00,19.0,18.0,30.13,East,90,4.0,22.0,96,0.00,,,-99.99,Weather View 32 v60,2013-02-21 08:50:00,
2013-02-21 03:55:00,19.0,18.0,30.13,NE,45,7.0,22.0,96,0.00,,,-99.99,Weather View 32 v60,2013-02-21 08:55:00,
2013-02-21 04:00:00,19.0,18.0,30.13,NNE,22,10.0,22.0,96,0.00,,,-99.99,Weather View 32 v60,2013-02-21 09:00:00,
2013-02-21 04:05:00,19.0,18.0,30.13,NE,45,7.0,22.0,96,0.00,,,-99.99,Weather View 32 v60,2013-02-21 09:05:00,
2013-02-21 04:10:00,19.0,18.0,30.13,NNE,22,10.0,22.0,96,0.00,,,-99.99,Weather View 32 v60,2013-02-21 09:10:00,
2013-02-21 04:15:00,19.0,18.0,30.13,NE,45,9.0,22.0,96,0.00,,,-99.99,Weather View 32 v60,2013-02-21 09:15:00,
2013-02-21 04:20:00,19.0,18.0,30.13,North,360,10.0,22.0,96,0.00,,,-99.99,Weather View 32 v60,2013-02-21 09:20:00,
2013-02-21 04:25:00,19.0,18.0,30.13,NE,45,8.0,22.0,96,0.00,,,-99.99,Weather View 32 v60,2013-02-21 09:25:00,
2013-02-21 04:30:00,19.0,18.0,30.13,NNE,22,11.0,22.0,96,0.00,,,-99.99,Weather View 32 v60,2013-02-21 09:30:00,
2013-02-21 04:35:00,19.0,18.0,30.13,East,90,10.0,22.0,96,0.00,,,-99.99,Weather View 32 v60,2013-02-21 09:35:00,
2013-02-21 04:40:00,19.0,18.0,30.13,NNE,22,9.0,19.0,96,0.00,,,-99.99,Weather View 32 v60,2013-02-21 09:40:00,
2013-02-21 04:45:00,19.0,18.0,30.13,North,360,9.0,18.0,96,0.00,,,-99.99,Weather View 32 v60,2013-02-21 09:45:00,
2013-02-21 04:50:00,19.0,18.0,30.13,NE,45,9.0,19.0,96,0.00,,,-99.99,Weather View 32 v60,2013-02-21 09:50:00,
2013-02-21 04:55:00,20.0,18.8,30.13,NNE,22,12.0,24.0,95,0.00,,,-99.99,Weather View 32 v60,2013-02-21 09:55:00,
2013-02-21 05:00:00,20.0,18.8,30.14,North,360,9.0,24.0,95,0.00,,,-99.99,Weather View 32 v60,2013-02-21 10:00:00,
2013-02-21 05:05:00,20.0,18.8,30.14,NE,45,8.0,24.0,95,0.00,,,-99.99,Weather View 32 v60,2013-02-21 10:05:00,
2013-02-21 05:10:00,20.0,18.8,30.14,NE,45,9.0,24.0,95,0.00,,,-99.99,Weather View 32 v60,2013-02-21 10:10:00,
2013-02-21 05:15:00,20.0,18.8,30.14,North,360,4.0,24.0,95,0.00,,,-99.99,Weather View 32 v60,2013-02-21 10:15:00,
2013-02-21 05:20:00,20.0,18.8,30.15,NE,45,8.0,24.0,95,0.00,,,-99.99,Weather View 32 v60,2013-02-21 10:20:00,
2013-02-21 05:25:00,20.0,18.8,30.15,NE,45,8.0,24.0,95,0.00,,,-99.99,Weather View 32 v60,2013-02-21 10:25:00,
2013-02-21 05:30:00,20.0,18.8,30.15,North,360,7.0,24.0,95,0.00,,,-99.99,Weather View 32 v60,2013-02-21 10:30:00,
2013-02-21 05:35:00,20.0,18.8,30.15,NE,45,4.0,24.0,95,0.00,,,-99.99,Weather View 32 v60,2013-02-21 10:35:00,
2013-02-21 05:40:00,20.0,18.8,30.16,NE,45,5.0,24.0,95,0.00,,,-99.99,Weather View 32 v60,2013-02-21 10:40:00,
2013-02-21 05:50:00,20.0,18.8,30.16,NNE,22,13.0,24.0,95,0.00,,,-99.99,Weather View 32 v60,2013-02-21 10:50:00,
2013-02-21 05:55:00,20.0,18.8,30.16,North,360,9.0,18.0,95,0.00,,,-99.99,Weather View 32 v60,2013-02-21 10:55:00,
2013-02-21 06:15:00,20.0,18.8,30.15,NNE,22,3.0,17.0,95,0.00,,,-99.99,Weather View 32 v60,2013-02-21 11:15:00,
2013-02-21 06:20:00,20.0,18.8,30.14,NE,45,4.0,17.0,95,0.00,,,-99.99,Weather View 32 v60,2013-02-21 11:20:00,
2013-02-21 06:25:00,20.0,18.8,30.14,NE,45,6.0,17.0,95,0.00,,,-99.99,Weather View 32 v60,2013-02-21 11:25:00,
2013-02-21 06:35:00,20.0,18.8,30.13,East,90,3.0,17.0,95,0.00,,,-99.99,Weather View 32 v60,2013-02-21 11:35:00,
2013-02-21 06:40:00,20.0,18.8,30.13,NNE,22,6.0,17.0,95,0.00,,,-99.99,Weather View 32 v60,2013-02-21 11:40:00,
2013-02-21 06:50:00,20.0,18.8,30.16,NE,45,9.0,24.0,95,0.00,,,-99.99,Weather View 32 v60,2013-02-21 11:50:00,
2013-02-21 06:55:00,20.0,18.8,30.16,NNE,22,13.0,24.0,95,0.00,,,-99.99,Weather View 32 v60,2013-02-21 11:55:00,
2013-02-21 07:05:00,20.0,18.8,30.15,North,360,8.0,17.0,95,0.00,,,-99.99,Weather View 32 v60,2013-02-21 12:05:00,
2013-02-21 07:10:00,20.0,18.8,30.15,East,90,12.0,17.0,95,0.00,,,-99.99,Weather View 32 v60,2013-02-21 12:10:00,
2013-02-21 07:15:00,20.0,18.8,30.15,NE,45,10.0,17.0,95,0.00,,,-99.99,Weather View 32 v60,2013-02-21 12:15:00,
2013-02-21 07:20:00,20.0,18.8,30.12,NE,45,6.0,26.0,95,0.00,,,-99.99,Weather View 32 v60,2013-02-21 12:20:00,
2013-02-21 07:25:00,20.0,18.8,30.12,East,90,0.0,26.0,95,0.00,,,-99.99,Weather View 32 v60,2013-02-21 12:25:00,
2013-02-21 07:30:00,21.0,19.8,30.15,ESE,112,8.0,26.0,95,0.00,,,-99.99,Weather View 32 v60,2013-02-21 12:30:00,
2013-02-21 07:35:00,20.0,18.8,30.13,NE,45,7.0,17.0,95,0.00,,,-99.99,Weather View 32 v60,2013-02-21 12:35:00,
2013-02-21 07:40:00,20.0,18.8,30.11,East,90,10.0,26.0,95,0.00,,,-99.99,Weather View 32 v60,2013-02-21 12:40:00,
2013-02-21 07:45:00,21.0,19.8,30.11,North,360,13.0,26.0,95,0.00,,,-99.99,Weather View 32 v60,2013-02-21 12:45:00,
2013-02-21 07:50:00,20.0,18.8,30.13,NNE,22,6.0,17.0,95,0.00,,,-99.99,Weather View 32 v60,2013-02-21 12:50:00,
2013-02-21 08:00:00,21.0,19.8,30.13,North,360,9.0,26.0,95,0.00,,,-99.99,Weather View 32 v60,2013-02-21 13:00:00,
2013-02-21 08:05:00,20.0,18.8,30.11,NE,45,10.0,16.0,95,0.00,,,-99.99,Weather View 32 v60,2013-02-21 13:05:00,
2013-02-21 08:10:00,21.0,19.5,30.15,NE,45,3.0,26.0,94,0.00,,,-99.99,Weather View 32 v60,2013-02-21 13:10:00,
2013-02-21 08:20:00,21.0,19.5,30.15,East,90,7.0,24.0,94,0.00,,,-99.99,Weather View 32 v60,2013-02-21 13:20:00,
2013-02-21 08:25:00,21.0,19.5,30.15,NE,45,7.0,24.0,94,0.00,,,-99.99,Weather View 32 v60,2013-02-21 13:25:00,
2013-02-21 08:40:00,21.0,19.8,30.13,East,90,3.0,24.0,95,0.00,,,-99.99,Weather View 32 v60,2013-02-21 13:40:00,
2013-02-21 08:50:00,21.0,19.8,30.14,ESE,112,3.0,20.0,95,0.00,,,-99.99,Weather View 32 v60,2013-02-21 13:50:00,
2013-02-21 08:55:00,22.0,20.3,30.14,NE,45,2.0,20.0,93,0.00,,,-99.99,Weather View 32 v60,2013-02-21 13:55:00,
2013-02-21 09:00:00,21.0,19.8,30.14,NNE,22,9.0,26.0,95,0.00,,,-99.99,Weather View 32 v60,2013-02-21 14:00:00,
2013-02-21 09:10:00,21.0,19.8,30.13,ENE,67,4.0,26.0,95,0.00,,,-99.99,Weather View 32 v60,2013-02-21 14:10:00,
2013-02-21 09:15:00,22.0,20.3,30.16,East,90,5.0,16.0,93,0.00,,,-99.99,Weather View 32 v60,2013-02-21 14:15:00,
2013-02-21 09:20:00,21.0,19.5,30.15,North,360,8.0,26.0,94,0.00,,,-99.99,Weather View 32 v60,2013-02-21 14:20:00,
2013-02-21 09:25:00,22.0,20.3,30.15,East,90,5.0,16.0,93,0.00,,,-99.99,Weather View 32 v60,2013-02-21 14:25:00,
2013-02-21 09:30:00,22.0,20.5,30.14,SE,135,4.0,16.0,94,0.00,,,-99.99,Weather View 32 v60,2013-02-21 14:30:00,
2013-02-21 09:35:00,21.0,19.8,30.14,NE,45,8.0,24.0,95,0.00,,,-99.99,Weather View 32 v60,2013-02-21 14:35:00,
2013-02-21 09:40:00,21.0,19.5,30.14,NE,45,8.0,24.0,94,0.00,,,-99.99,Weather View 32 v60,2013-02-21 14:40:00,
2013-02-21 09:45:00,22.0,19.3,30.13,ENE,67,8.0,11.0,89,0.00,,,-99.99,Weather View 32 v60,2013-02-21 14:45:00,
2013-02-21 09:50:00,21.0,19.3,30.13,ENE,67,8.0,24.0,93,0.00,,,-99.99,Weather View 32 v60,2013-02-21 14:50:00,
2013-02-21 09:55:00,22.0,20.0,30.13,SE,135,2.0,15.0,92,0.00,,,-99.99,Weather View 32 v60,2013-02-21 14:55:00,
2013-02-21 10:00:00,23.0,21.3,30.13,SSE,157,5.0,15.0,93,0.00,,,-99.99,Weather View 32 v60,2013-02-21 15:00:00,
2013-02-21 10:05:00,23.0,20.8,30.13,SSW,202,2.0,15.0,91,0.00,,,-99.99,Weather View 32 v60,2013-02-21 15:05:00,
2013-02-21 10:10:00,21.0,19.3,30.15,NE,45,6.0,16.0,93,0.00,,,-99.99,Weather View 32 v60,2013-02-21 15:10:00,
2013-02-21 10:15:00,22.0,19.8,30.13,SE,135,10.0,15.0,91,0.00,,,-99.99,Weather View 32 v60,2013-02-21 15:15:00,
2013-02-21 10:20:00,23.0,20.5,30.13,ENE,67,7.0,15.0,90,0.00,,,-99.99,Weather View 32 v60,2013-02-21 15:20:00,
2013-02-21 10:25:00,23.0,20.2,30.13,East,90,6.0,15.0,89,0.00,,,-99.99,Weather View 32 v60,2013-02-21 15:25:00,
2013-02-21 10:30:00,23.0,20.5,30.14,East,90,9.0,15.0,90,0.00,,,-99.99,Weather View 32 v60,2013-02-21 15:30:00,
2013-02-21 10:35:00,23.0,20.5,30.14,ESE,112,6.0,15.0,90,0.00,,,-99.99,Weather View 32 v60,2013-02-21 15:35:00,
2013-02-21 10:40:00,22.0,20.3,30.14,SE,135,4.0,12.0,93,0.00,,,-99.99,Weather View 32 v60,2013-02-21 15:40:00,
2013-02-21 10:45:00,23.0,20.5,30.13,East,90,8.0,15.0,90,0.00,,,-99.99,Weather View 32 v60,2013-02-21 15:45:00,
2013-02-21 10:50:00,23.0,20.5,30.13,NE,45,0.0,15.0,90,0.00,,,-99.99,Weather View 32 v60,2013-02-21 15:50:00,
2013-02-21 10:55:00,23.0,20.2,30.13,East,90,10.0,14.0,89,0.00,,,-99.99,Weather View 32 v60,2013-02-21 15:55:00,
2013-02-21 11:00:00,23.0,20.2,30.13,East,90,7.0,17.0,89,0.00,,,-99.99,Weather View 32 v60,2013-02-21 16:00:00,
2013-02-21 11:05:00,23.0,21.0,30.13,SE,135,7.0,17.0,92,0.00,,,-99.99,Weather View 32 v60,2013-02-21 16:05:00,
2013-02-21 11:10:00,23.0,20.5,30.15,SSE,157,15.0,19.0,90,0.00,,,-99.99,Weather View 32 v60,2013-02-21 16:10:00,
2013-02-21 11:15:00,23.0,20.8,30.15,SE,135,11.0,19.0,91,0.00,,,-99.99,Weather View 32 v60,2013-02-21 16:15:00,
2013-02-21 11:20:00,23.0,20.0,30.15,East,90,9.0,19.0,88,0.00,,,-99.99,Weather View 32 v60,2013-02-21 16:20:00,
2013-02-21 11:25:00,23.0,20.5,30.15,SSE,157,9.0,19.0,90,0.00,,,-99.99,Weather View 32 v60,2013-02-21 16:25:00,
2013-02-21 11:30:00,24.0,20.4,30.16,East,90,9.0,19.0,86,0.00,,,-99.99,Weather View 32 v60,2013-02-21 16:30:00,
2013-02-21 11:35:00,24.0,21.2,30.16,ESE,112,7.0,19.0,89,0.00,,,-99.99,Weather View 32 v60,2013-02-21 16:35:00,
2013-02-21 11:40:00,24.0,21.2,30.15,ESE,112,2.0,19.0,89,0.00,,,-99.99,Weather View 32 v60,2013-02-21 16:40:00,
2013-02-21 11:45:00,23.0,21.0,30.15,SE,135,3.0,19.0,92,0.00,,,-99.99,Weather View 32 v60,2013-02-21 16:45:00,
2013-02-21 11:50:00,23.0,20.8,30.15,SSE,157,10.0,19.0,91,0.00,,,-99.99,Weather View 32 v60,2013-02-21 16:50:00,
2013-02-21 11:55:00,23.0,20.5,30.15,ESE,112,4.0,19.0,90,0.00,,,-99.99,Weather View 32 v60,2013-02-21 16:55:00,
2013-02-21 12:00:00,23.0,20.5,30.13,East,90,5.0,19.0,90,0.00,,,-99.99,Weather View 32 v60,2013-02-21 17:00:00,
2013-02-21 12:05:00,23.0,20.5,30.13,SSE,157,8.0,19.0,90,0.00,,,-99.99,Weather View 32 v60,2013-02-21 17:05:00,
2013-02-21 12:10:00,23.0,20.5,30.12,SE,135,11.0,15.0,90,0.00,,,-99.99,Weather View 32 v60,2013-02-21 17:10:00,
2013-02-21 12:15:00,23.0,20.8,30.12,SE,135,8.0,16.0,91,0.00,,,-99.99,Weather View 32 v60,2013-02-21 17:15:00,
2013-02-21 12:20:00,24.0,21.5,30.12,SE,135,0.0,16.0,90,0.00,,,-99.99,Weather View 32 v60,2013-02-21 17:20:00,
2013-02-21 12:25:00,23.0,20.8,30.12,ESE,112,6.0,17.0,91,0.00,,,-99.99,Weather View 32 v60,2013-02-21 17:25:00,
2013-02-21 12:30:00,23.0,20.2,30.11,East,90,16.0,17.0,89,0.00,,,-99.99,Weather View 32 v60,2013-02-21 17:30:00,
2013-02-21 12:35:00,23.0,20.2,30.11,ESE,112,7.0,17.0,89,0.00,,,-99.99,Weather View 32 v60,2013-02-21 17:35:00,
2013-02-21 12:40:00,23.0,20.5,30.10,East,90,5.0,17.0,90,0.00,,,-99.99,Weather View 32 v60,2013-02-21 17:40:00,
2013-02-21 12:45:00,24.0,21.0,30.10,NE,45,1.0,17.0,88,0.00,,,-99.99,Weather View 32 v60,2013-02-21 17:45:00,
2013-02-21 12:50:00,24.0,21.0,30.10,SE,135,10.0,20.0,88,0.00,,,-99.99,Weather View 32 v60,2013-02-21 17:50:00,
2013-02-21 12:55:00,24.0,21.0,30.10,South,180,6.0,20.0,88,0.00,,,-99.99,Weather View 32 v60,2013-02-21 17:55:00,
2013-02-21 13:05:00,24.0,21.2,30.09,SE,135,4.0,20.0,89,0.00,,,-99.99,Weather View 32 v60,2013-02-21 18:05:00,
2013-02-21 13:10:00,24.0,21.0,30.09,East,90,8.0,20.0,88,0.00,,,-99.99,Weather View 32 v60,2013-02-21 18:10:00,
2013-02-21 13:15:00,24.0,20.7,30.09,East,90,5.0,20.0,87,0.00,,,-99.99,Weather View 32 v60,2013-02-21 18:15:00,
2013-02-21 13:35:00,24.0,21.0,30.09,SE,135,10.0,20.0,88,0.00,,,-99.99,Weather View 32 v60,2013-02-21 18:35:00,
2013-02-21 13:45:00,24.0,20.4,30.07,ESE,112,9.0,20.0,86,0.00,,,-99.99,Weather View 32 v60,2013-02-21 18:45:00,
2013-02-21 13:50:00,24.0,20.4,30.05,SE,135,3.0,19.0,86,0.00,,,-99.99,Weather View 32 v60,2013-02-21 18:50:00,
2013-02-21 13:55:00,24.0,20.7,30.05,East,90,5.0,19.0,87,0.00,,,-99.99,Weather View 32 v60,2013-02-21 18:55:00,
2013-02-21 14:00:00,24.0,20.7,30.04,SE,135,10.0,29.0,87,0.00,,,-99.99,Weather View 32 v60,2013-02-21 19:00:00,
2013-02-21 14:05:00,24.0,21.0,30.09,ESE,112,12.0,20.0,88,0.00,,,-99.99,Weather View 32 v60,2013-02-21 19:05:00,
2013-02-21 14:10:00,24.0,20.4,30.04,East,90,13.0,29.0,86,0.00,,,-99.99,Weather View 32 v60,2013-02-21 19:10:00,
2013-02-21 14:15:00,24.0,20.7,30.04,East,90,7.0,29.0,87,0.00,,,-99.99,Weather View 32 v60,2013-02-21 19:15:00,
2013-02-21 14:20:00,24.0,21.0,30.03,East,90,9.0,29.0,88,0.00,,,-99.99,Weather View 32 v60,2013-02-21 19:20:00,
2013-02-21 14:25:00,24.0,21.0,30.09,SE,135,4.0,20.0,88,0.00,,,-99.99,Weather View 32 v60,2013-02-21 19:25:00,
2013-02-21 14:30:00,24.0,21.0,30.09,SE,135,10.0,20.0,88,0.00,,,-99.99,Weather View 32 v60,2013-02-21 19:30:00,
2013-02-21 14:35:00,24.0,21.2,30.09,East,90,4.0,20.0,89,0.00,,,-99.99,Weather View 32 v60,2013-02-21 19:35:00,
2013-02-21 14:40:00,24.0,20.7,30.03,South,180,3.0,29.0,87,0.00,,,-99.99,Weather View 32 v60,2013-02-21 19:40:00,
2013-02-21 14:45:00,24.0,20.7,30.07,SE,135,8.0,20.0,87,0.00,,,-99.99,Weather View 32 v60,2013-02-21 19:45:00,
2013-02-21 14:50:00,24.0,21.0,30.04,SE,135,10.0,29.0,88,0.00,,,-99.99,Weather View 32 v60,2013-02-21 19:50:00,
2013-02-21 14:55:00,24.0,21.0,30.04,SE,135,7.0,29.0,88,0.00,,,-99.99,Weather View 32 v60,2013-02-21 19:55:00,
2013-02-21 15:00:00,24.0,21.0,30.05,SE,135,3.0,23.0,88,0.00,,,-99.99,Weather View 32 v60,2013-02-21 20:00:00,
2013-02-21 15:01:00,24.0,20.7,30.05,East,90,5.0,19.0,87,0.00,,,-99.99,Weather View 32 v60,2013-02-21 20:01:00,
2013-02-21 15:05:00,25.0,22.2,30.05,SE,135,6.0,19.0,89,0.00,,,-99.99,Weather View 32 v60,2013-02-21 20:05:00,
2013-02-21 15:10:00,24.0,20.7,30.04,SE,135,6.0,29.0,87,0.00,,,-99.99,Weather View 32 v60,2013-02-21 20:10:00,
2013-02-21 15:15:00,24.0,21.0,30.05,ESE,112,6.0,19.0,88,0.00,,,-99.99,Weather View 32 v60,2013-02-21 20:15:00,
2013-02-21 15:20:00,24.0,20.7,30.07,SSE,157,8.0,19.0,87,0.00,,,-99.99,Weather View 32 v60,2013-02-21 20:20:00,
2013-02-21 15:25:00,24.0,20.4,30.07,ESE,112,16.0,20.0,86,0.00,,,-99.99,Weather View 32 v60,2013-02-21 20:25:00,
2013-02-21 15:30:00,24.0,20.4,30.06,ESE,112,8.0,20.0,86,0.00,,,-99.99,Weather View 32 v60,2013-02-21 20:30:00,
2013-02-21 15:35:00,24.0,20.4,30.06,SE,135,12.0,20.0,86,0.00,,,-99.99,Weather View 32 v60,2013-02-21 20:35:00,
2013-02-21 15:40:00,24.0,20.4,30.03,ENE,67,8.0,29.0,86,0.00,,,-99.99,Weather View 32 v60,2013-02-21 20:40:00,
2013-02-21 15:45:00,24.0,20.7,30.07,ENE,67,5.0,20.0,87,0.00,,,-99.99,Weather View 32 v60,2013-02-21 20:45:00,
2013-02-21 15:55:00,24.0,21.0,30.07,SE,135,8.0,20.0,88,0.00,,,-99.99,Weather View 32 v60,2013-02-21 20:55:00,
2013-02-21 16:10:00,23.0,20.2,30.07,SE,135,7.0,20.0,89,0.00,,,-99.99,Weather View 32 v60,2013-02-21 21:10:00,
2013-02-21 16:20:00,23.0,20.2,30.07,SSE,157,9.0,20.0,89,0.00,,,-99.99,Weather View 32 v60,2013-02-21 21:20:00,
2013-02-21 16:25:00,23.0,20.2,30.07,SE,135,1.0,20.0,89,0.00,,,-99.99,Weather View 32 v60,2013-02-21 21:25:00,
2013-02-21 16:30:00,22.0,19.3,30.06,SE,135,8.0,21.0,89,0.00,,,-99.99,Weather View 32 v60,2013-02-21 21:30:00,
2013-02-21 16:40:00,22.0,19.3,30.06,ENE,67,6.0,21.0,89,0.00,,,-99.99,Weather View 32 v60,2013-02-21 21:40:00,
2013-02-21 16:45:00,22.0,19.5,30.06,East,90,13.0,21.0,90,0.00,,,-99.99,Weather View 32 v60,2013-02-21 21:45:00,
2013-02-21 16:50:00,22.0,19.3,30.06,East,90,12.0,21.0,89,0.00,,,-99.99,Weather View 32 v60,2013-02-21 21:50:00,
2013-02-21 16:55:00,24.0,21.0,30.07,SE,135,9.0,20.0,88,0.00,,,-99.99,Weather View 32 v60,2013-02-21 21:55:00,
2013-02-21 17:00:00,22.0,19.5,30.07,East,90,6.0,24.0,90,0.00,,,-99.99,Weather View 32 v60,2013-02-21 22:00:00,
2013-02-21 17:05:00,24.0,21.2,30.07,SE,135,6.0,20.0,89,0.00,,,-99.99,Weather View 32 v60,2013-02-21 22:05:00,
2013-02-21 17:10:00,24.0,21.2,30.07,SE,135,2.0,20.0,89,0.00,,,-99.99,Weather View 32 v60,2013-02-21 22:10:00,
2013-02-21 17:20:00,23.0,20.0,30.07,ESE,112,16.0,20.0,88,0.00,,,-99.99,Weather View 32 v60,2013-02-21 22:20:00,
2013-02-21 17:25:00,21.0,19.0,30.06,SE,135,8.0,27.0,92,0.00,,,-99.99,Weather View 32 v60,2013-02-21 22:25:00,
2013-02-21 17:30:00,21.0,18.8,30.06,ESE,112,15.0,27.0,91,0.00,,,-99.99,Weather View 32 v60,2013-02-21 22:30:00,
2013-02-21 17:35:00,21.0,18.8,30.06,SSE,157,9.0,27.0,91,0.00,,,-99.99,Weather View 32 v60,2013-02-21 22:35:00,
2013-02-21 17:40:00,22.0,19.3,30.06,ESE,112,15.0,21.0,89,0.00,,,-99.99,Weather View 32 v60,2013-02-21 22:40:00,
2013-02-21 17:45:00,21.0,19.0,30.06,South,180,5.0,27.0,92,0.00,,,-99.99,Weather View 32 v60,2013-02-21 22:45:00,
2013-02-21 17:50:00,21.0,19.0,30.05,SSW,202,3.0,27.0,92,0.00,,,-99.99,Weather View 32 v60,2013-02-21 22:50:00,
2013-02-21 17:55:00,21.0,19.0,30.05,South,180,11.0,27.0,92,0.00,,,-99.99,Weather View 32 v60,2013-02-21 22:55:00,
2013-02-21 18:00:00,21.0,18.8,30.05,East,90,19.0,27.0,91,0.00,,,-99.99,Weather View 32 v60,2013-02-21 23:00:00,
2013-02-21 18:05:00,21.0,18.8,30.05,East,90,17.0,27.0,91,0.00,,,-99.99,Weather View 32 v60,2013-02-21 23:05:00,
2013-02-21 18:10:00,21.0,19.0,30.06,SSE,157,10.0,27.0,92,0.00,,,-99.99,Weather View 32 v60,2013-02-21 23:10:00,
2013-02-21 18:15:00,21.0,18.8,30.07,SSE,157,10.0,24.0,91,0.00,,,-99.99,Weather View 32 v60,2013-02-21 23:15:00,
2013-02-21 18:20:00,20.0,18.1,30.05,South,180,8.0,24.0,92,0.00,,,-99.99,Weather View 32 v60,2013-02-21 23:20:00,
2013-02-21 18:25:00,20.0,18.1,30.05,East,90,15.0,22.0,92,0.00,,,-99.99,Weather View 32 v60,2013-02-21 23:25:00,
2013-02-21 18:30:00,20.0,18.3,30.05,SE,135,7.0,22.0,93,0.00,,,-99.99,Weather View 32 v60,2013-02-21 23:30:00,
2013-02-21 18:35:00,20.0,18.1,30.05,SE,135,10.0,22.0,92,0.00,,,-99.99,Weather View 32 v60,2013-02-21 23:35:00,
2013-02-21 18:40:00,20.0,18.3,30.06,South,180,8.0,22.0,93,0.00,,,-99.99,Weather View 32 v60,2013-02-21 23:40:00,
2013-02-21 18:45:00,20.0,18.3,30.06,SE,135,9.0,22.0,93,0.00,,,-99.99,Weather View 32 v60,2013-02-21 23:45:00,
2013-02-21 18:50:00,20.0,18.3,30.05,SE,135,13.0,23.0,93,0.00,,,-99.99,Weather View 32 v60,2013-02-21 23:50:00,
2013-02-21 18:55:00,20.0,18.1,30.05,SE,135,16.0,23.0,92,0.00,,,-99.99,Weather View 32 v60,2013-02-21 23:55:00,
2013-02-21 19:00:00,20.0,18.3,30.05,SE,135,8.0,23.0,93,0.00,,,-99.99,Weather View 32 v60,2013-02-22 00:00:00,
2013-02-21 19:05:00,20.0,18.3,30.05,East,90,12.0,23.0,93,0.00,,,-99.99,Weather View 32 v60,2013-02-22 00:05:00,
2013-02-21 19:10:00,19.0,17.6,30.05,SE,135,6.0,23.0,94,0.00,,,-99.99,Weather View 32 v60,2013-02-22 00:10:00,
2013-02-21 19:15:00,19.0,17.6,30.05,East,90,5.0,23.0,94,0.00,,,-99.99,Weather View 32 v60,2013-02-22 00:15:00,
2013-02-21 19:20:00,19.0,17.6,30.05,ESE,112,7.0,23.0,94,0.00,,,-99.99,Weather View 32 v60,2013-02-22 00:20:00,
2013-02-21 19:25:00,19.0,17.6,30.05,East,90,8.0,25.0,94,0.00,,,-99.99,Weather View 32 v60,2013-02-22 00:25:00,
2013-02-21 19:30:00,19.0,17.6,30.03,SE,135,5.0,25.0,94,0.00,,,-99.99,Weather View 32 v60,2013-02-22 00:30:00,
2013-02-21 19:35:00,19.0,17.6,30.03,South,180,6.0,25.0,94,0.00,,,-99.99,Weather View 32 v60,2013-02-22 00:35:00,
2013-02-21 19:40:00,19.0,17.6,30.03,SE,135,13.0,25.0,94,0.00,,,-99.99,Weather View 32 v60,2013-02-22 00:40:00,
2013-02-21 19:45:00,19.0,17.6,30.03,East,90,9.0,25.0,94,0.00,,,-99.99,Weather View 32 v60,2013-02-22 00:45:00,
2013-02-21 19:50:00,19.0,17.6,30.02,South,180,5.0,25.0,94,0.00,,,-99.99,Weather View 32 v60,2013-02-22 00:50:00,
2013-02-21 19:55:00,19.0,17.6,30.02,East,90,13.0,25.0,94,0.00,,,-99.99,Weather View 32 v60,2013-02-22 00:55:00,
2013-02-21 20:00:00,19.0,17.6,30.01,ESE,112,14.0,25.0,94,0.00,,,-99.99,Weather View 32 v60,2013-02-22 01:00:00,
2013-02-21 20:05:00,19.0,17.6,30.01,ESE,112,15.0,25.0,94,0.00,,,-99.99,Weather View 32 v60,2013-02-22 01:05:00,
2013-02-21 20:10:00,19.0,17.6,30.01,SE,135,8.0,25.0,94,0.00,,,-99.99,Weather View 32 v60,2013-02-22 01:10:00,
2013-02-21 20:15:00,19.0,17.6,30.01,SE,135,14.0,25.0,94,0.00,,,-99.99,Weather View 32 v60,2013-02-22 01:15:00,
2013-02-21 20:20:00,19.0,17.6,30.02,ESE,112,14.0,25.0,94,0.00,,,-99.99,Weather View 32 v60,2013-02-22 01:20:00,
2013-02-21 20:25:00,19.0,17.6,30.02,ESE,112,10.0,25.0,94,0.00,,,-99.99,Weather View 32 v60,2013-02-22 01:25:00,
2013-02-21 20:30:00,19.0,17.6,30.01,ESE,112,14.0,25.0,94,0.00,,,-99.99,Weather View 32 v60,2013-02-22 01:30:00,
2013-02-21 20:35:00,19.0,17.6,30.01,SE,135,5.0,25.0,94,0.00,,,-99.99,Weather View 32 v60,2013-02-22 01:35:00,
2013-02-21 20:40:00,19.0,17.6,30.00,SE,135,12.0,25.0,94,0.00,,,-99.99,Weather View 32 v60,2013-02-22 01:40:00,
2013-02-21 20:45:00,19.0,17.6,30.00,ESE,112,9.0,25.0,94,0.00,,,-99.99,Weather View 32 v60,2013-02-22 01:45:00,
2013-02-21 20:50:00,19.0,17.6,30.00,East,90,1.0,25.0,94,0.00,,,-99.99,Weather View 32 v60,2013-02-22 01:50:00,
2013-02-21 20:55:00,19.0,17.3,30.00,SE,135,13.0,25.0,93,0.00,,,-99.99,Weather View 32 v60,2013-02-22 01:55:00,
2013-02-21 21:00:00,19.0,17.3,29.99,SE,135,15.0,25.0,93,0.00,,,-99.99,Weather View 32 v60,2013-02-22 02:00:00,
2013-02-21 21:05:00,19.0,17.6,29.99,South,180,6.0,25.0,94,0.00,,,-99.99,Weather View 32 v60,2013-02-22 02:05:00,
2013-02-21 21:10:00,19.0,17.6,29.99,East,90,20.0,25.0,94,0.00,,,-99.99,Weather View 32 v60,2013-02-22 02:10:00,
2013-02-21 21:15:00,19.0,17.6,29.99,SE,135,16.0,27.0,94,0.00,,,-99.99,Weather View 32 v60,2013-02-22 02:15:00,
2013-02-21 21:20:00,19.0,17.6,29.98,East,90,12.0,27.0,94,0.00,,,-99.99,Weather View 32 v60,2013-02-22 02:20:00,
2013-02-21 21:25:00,19.0,17.6,29.98,SSE,157,7.0,27.0,94,0.00,,,-99.99,Weather View 32 v60,2013-02-22 02:25:00,
2013-02-21 21:30:00,19.0,17.6,29.97,SE,135,10.0,27.0,94,0.00,,,-99.99,Weather View 32 v60,2013-02-22 02:30:00,
2013-02-21 21:35:00,19.0,17.6,29.97,SE,135,8.0,27.0,94,0.00,,,-99.99,Weather View 32 v60,2013-02-22 02:35:00,
2013-02-21 21:40:00,19.0,17.6,29.96,SE,135,17.0,27.0,94,0.00,,,-99.99,Weather View 32 v60,2013-02-22 02:40:00,
2013-02-21 21:45:00,19.0,17.6,29.96,SE,135,7.0,27.0,94,0.00,,,-99.99,Weather View 32 v60,2013-02-22 02:45:00,
2013-02-21 21:50:00,19.0,17.6,29.95,SE,135,8.0,29.0,94,0.00,,,-99.99,Weather View 32 v60,2013-02-22 02:50:00,
2013-02-21 21:55:00,19.0,17.6,29.95,SE,135,13.0,30.0,94,0.00,,,-99.99,Weather View 32 v60,2013-02-22 02:55:00,
2013-02-21 22:00:00,19.0,17.6,29.94,South,180,7.0,30.0,94,0.00,,,-99.99,Weather View 32 v60,2013-02-22 03:00:00,
2013-02-21 22:05:00,19.0,17.6,29.94,SE,135,10.0,30.0,94,0.00,,,-99.99,Weather View 32 v60,2013-02-22 03:05:00,
2013-02-21 22:10:00,19.0,17.6,29.94,SE,135,15.0,30.0,94,0.00,,,-99.99,Weather View 32 v60,2013-02-22 03:10:00,
2013-02-21 22:15:00,19.0,17.8,29.94,South,180,3.0,30.0,95,0.00,,,-99.99,Weather View 32 v60,2013-02-22 03:15:00,
2013-02-21 22:20:00,19.0,17.8,29.94,SE,135,19.0,30.0,95,0.00,,,-99.99,Weather View 32 v60,2013-02-22 03:20:00,
2013-02-21 22:25:00,19.0,17.6,29.94,ESE,112,12.0,30.0,94,0.00,,,-99.99,Weather View 32 v60,2013-02-22 03:25:00,
2013-02-21 22:30:00,19.0,17.8,29.93,SE,135,27.0,30.0,95,0.00,,,-99.99,Weather View 32 v60,2013-02-22 03:30:00,
2013-02-21 22:35:00,19.0,17.8,29.93,SE,135,16.0,38.0,95,0.00,,,-99.99,Weather View 32 v60,2013-02-22 03:35:00,
2013-02-21 22:40:00,19.0,18.0,29.93,East,90,13.0,38.0,96,0.00,,,-99.99,Weather View 32 v60,2013-02-22 03:40:00,
2013-02-21 22:50:00,19.0,17.8,29.93,ESE,112,19.0,38.0,95,0.00,,,-99.99,Weather View 32 v60,2013-02-22 03:50:00,
2013-02-21 22:55:00,19.0,18.0,29.93,SE,135,14.0,38.0,96,0.00,,,-99.99,Weather View 32 v60,2013-02-22 03:55:00,
2013-02-21 23:00:00,19.0,18.0,29.93,SE,135,16.0,38.0,96,0.00,,,-99.99,Weather View 32 v60,2013-02-22 04:00:00,
2013-02-21 23:05:00,19.0,18.0,29.93,SE,135,24.0,38.0,96,0.00,,,-99.99,Weather View 32 v60,2013-02-22 04:05:00,
2013-02-21 23:10:00,19.0,18.0,29.93,South,180,11.0,38.0,96,0.00,,,-99.99,Weather View 32 v60,2013-02-22 04:10:00,
2013-02-21 23:15:00,19.0,18.0,29.93,SE,135,11.0,38.0,96,0.00,,,-99.99,Weather View 32 v60,2013-02-22 04:15:00,
2013-02-21 23:20:00,19.0,18.0,29.92,SE,135,12.0,38.0,96,0.00,,,-99.99,Weather View 32 v60,2013-02-22 04:20:00,
2013-02-21 23:25:00,19.0,18.0,29.92,ESE,112,17.0,38.0,96,0.00,,,-99.99,Weather View 32 v60,2013-02-22 04:25:00,
2013-02-21 23:30:00,19.0,17.8,29.91,SE,135,13.0,38.0,95,0.00,,,-99.99,Weather View 32 v60,2013-02-22 04:30:00,
2013-02-21 23:35:00,19.0,18.0,29.91,East,90,10.0,38.0,96,0.00,,,-99.99,Weather View 32 v60,2013-02-22 04:35:00,
2013-02-21 23:40:00,19.0,17.8,29.91,SE,135,6.0,33.0,95,0.00,,,-99.99,Weather View 32 v60,2013-02-22 04:40:00,
2013-02-21 23:45:00,20.0,18.8,29.91,SE,135,11.0,31.0,95,0.00,,,-99.99,Weather View 32 v60,2013-02-22 04:45:00,
2013-02-21 23:50:00,19.0,17.8,29.93,SSE,157,6.0,38.0,95,0.00,,,-99.99,Weather View 32 v60,2013-02-22 04:50:00,
2013-02-21 23:55:00,20.0,18.6,29.91,SE,135,8.0,32.0,94,0.00,,,-99.99,Weather View 32 v60,2013-02-22 04:55:00,